Temp
67 69 68 67 66 65 65 64 64 63 62 60 59 58 57 56 56 54 53 52 51 51
70 70 69 67 67 65 64 63 62 62 60 59 58 57 56 55 54 54 52 52 51 50
68 69 68 67 65 63 63 63 61 59 59 58 57 56 55 54 53 53 52 51 51 49
68 67 66 64 63 63 61 60 59 59 58 58 56 55 54 53 54 53 51 51 51 49
67 65 62 61 61 62 59 59 59 59 59 58 56 55 54 55 54 52 51 50 49 47
63 62 61 60 61 61 60 57 57 56 55 55 55 54 55 55 54 53 51 49 47 46
61 60 60 60 59 58 57 55 53 52 52 51 51 52 54 55 52 51 50 49 47 46
60 60 59 58 57 56 54 53 52 50 49 48 49 50 51 52 50 49 47 48 49 47
60 58 56 56 54 51 49 49 48 46 46 45 49 47 51 51 49 48 46 45 44 47
57 56 56 54 52 49 47 46 44 43 45 43 45 48 49 51 47 44 43 42 43 47
55 56 55 52 50 48 47 45 44 43 44 45 46 47 47 48 45 43 43 43 42 41
56 55 54 51 49 48 46 45 45 44 43 43 41 45 45 45 43 43 42 44 44 42
58 55 52 51 49 49 48 47 47 45 42 46 41 43 44 43 43 41 43 43 43 46
55 53 52 50 50 48 46 45 43 41 39 39 40 41 43 43 41 40 43 42 40 43
MSLP
1006.18 1007.07 1007.62 1008.69 1010.39 1012.27 1013.12 1013.37 1013.33 1013.46 1014.29 1014.27 1014.56 1015.44 1015.82 1016.16 1016.11 1016.23 1016.50 1016.92 1016.92 1017.15
1006.74 1007.95 1008.52 1009.13 1009.89 1012.12 1013.37 1013.96 1013.70 1014.59 1014.51 1014.56 1015.08 1016.09 1016.58 1016.43 1016.54 1016.76 1016.93 1017.36 1017.50 1017.47
1006.87 1007.83 1008.67 1009.24 1009.71 1011.09 1013.67 1013.79 1014.22 1014.88 1014.77 1015.01 1015.78 1016.67 1016.93 1017.00 1016.98 1016.81 1017.69 1017.77 1017.68 1017.86
1007.47 1008.36 1008.94 1009.75 1011.00 1012.22 1013.68 1014.29 1014.62 1014.95 1015.15 1015.65 1016.32 1017.01 1017.33 1017.11 1017.10 1017.64 1018.15 1018.08 1018.02 1018.37
1007.55 1008.50 1009.56 1010.58 1012.02 1012.90 1013.97 1014.79 1015.19 1015.40 1015.53 1016.25 1017.03 1017.30 1017.18 1017.32 1017.68 1018.15 1018.36 1018.63 1018.54 1018.69
1007.84 1008.97 1010.07 1011.53 1012.52 1013.28 1013.52 1015.39 1015.24 1015.86 1016.61 1016.98 1017.34 1017.40 1017.64 1018.26 1018.41 1018.39 1018.79 1019.05 1018.93 1018.70
1007.87 1009.27 1010.75 1012.29 1012.94 1012.97 1014.80 1015.61 1016.21 1016.95 1017.24 1017.64 1017.68 1017.88 1018.59 1018.84 1018.72 1018.98 1019.36 1019.17 1019.10 1019.15
1008.44 1009.80 1011.71 1013.10 1013.62 1014.53 1015.23 1016.03 1017.45 1017.70 1017.96 1018.24 1018.37 1018.82 1019.10 1019.16 1019.35 1019.96 1019.89 1019.33 1019.32 1019.52
1009.34 1010.47 1012.16 1013.92 1015.28 1014.29 1015.93 1017.95 1018.11 1018.44 1018.76 1018.67 1018.90 1019.44 1019.49 1019.78 1020.09 1020.42 1020.42 1020.21 1019.78 1019.59
1009.97 1011.30 1013.06 1015.06 1014.92 1016.17 1017.51 1018.44 1018.91 1019.28 1019.14 1019.45 1019.69 1019.72 1020.01 1020.47 1020.88 1020.64 1020.84 1020.81 1020.00 1019.90
1009.26 1012.26 1015.24 1015.30 1016.31 1017.93 1017.97 1018.99 1019.78 1019.91 1020.23 1020.25 1020.56 1020.52 1020.87 1021.05 1020.98 1021.16 1021.15 1021.24 1020.42 1020.44
1012.15 1014.26 1014.83 1016.88 1017.82 1018.48 1018.78 1019.68 1020.63 1020.66 1021.14 1021.02 1021.49 1021.46 1021.61 1021.52 1021.39 1021.53 1021.44 1021.53 1021.00 1021.01
1013.45 1013.69 1016.06 1017.94 1018.35 1019.19 1019.46 1020.56 1021.10 1021.81 1021.87 1022.34 1022.12 1022.40 1022.17 1021.78 1022.24 1021.90 1021.99 1021.58 1021.69 1021.60
1013.47 1015.99 1018.12 1017.78 1018.62 1019.65 1020.56 1021.54 1021.87 1022.64 1023.21 1022.97 1022.86 1022.82 1022.40 1022.59 1022.33 1022.65 1022.41 1022.79 1022.73 1022.38
Wind_Speed
13 8 12 14 10 4 5 6 8 10 7 9 8 6 6 4 5 6 5 7 6 4
14 12 11 16 15 9 7 6 10 8 9 9 9 6 6 5 6 6 6 6 6 4
13 13 13 14 17 17 9 11 11 9 9 8 8 7 6 5 5 8 4 4 8 7
12 15 14 13 15 14 12 10 10 10 10 10 9 7 6 6 7 7 6 6 8 6
17 16 16 15 15 15 12 9 9 9 11 9 7 6 7 7 6 6 8 6 7 6
18 17 17 17 15 16 15 8 11 11 10 10 8 7 7 6 7 10 8 6 7 6
18 19 17 15 15 17 14 13 13 10 10 9 8 7 6 7 8 8 6 6 7 6
20 20 18 15 15 16 15 14 11 11 10 8 8 4 5 7 8 8 7 6 5 5
20 21 19 15 14 17 17 11 12 10 8 8 5 3 10 10 9 7 6 5 4 4
21 19 18 16 17 17 14 12 11 8 10 10 7 13 15 14 6 6 5 4 6 6
25 19 15 17 18 13 13 12 10 10 9 11 9 14 13 11 7 5 6 5 7 7
19 18 19 18 15 14 14 12 11 10 10 12 8 13 9 6 6 5 6 6 8 7
19 19 19 16 16 13 13 12 10 11 9 12 9 13 11 8 3 7 5 8 7 11
19 18 15 18 14 13 13 11 11 11 6 7 8 11 14 9 5 4 7 6 5 6
Wind_Direction
151 147 137 129 106 134 126 133 120 103 116 105 93 90 85 81 92 83 79 72 56 56
153 150 150 134 131 127 134 137 110 115 106 101 92 92 94 90 89 86 73 67 59 56
153 136 160 147 133 124 139 122 116 118 106 101 95 94 88 85 82 83 74 77 67 46
152 141 128 119 118 121 123 123 118 112 106 104 101 102 99 84 86 87 83 60 60 48
140 133 125 121 124 123 120 113 116 107 98 98 101 101 91 88 82 92 86 70 64 41
134 133 125 123 129 127 109 102 88 83 89 87 84 82 86 86 83 85 88 82 63 37
126 122 119 125 117 100 101 101 87 84 81 76 70 63 72 99 86 82 90 81 67 40
117 114 109 104 96 102 96 83 90 89 75 71 69 46 94 89 83 77 67 55 60 52
117 114 103 104 108 91 84 89 85 73 79 67 61 37 77 89 87 79 67 54 36 26
110 104 107 109 94 89 95 87 78 69 69 60 49 77 86 94 94 91 78 58 37 26
95 109 112 103 94 101 91 88 82 70 61 69 46 68 87 101 93 84 63 40 42 45
119 121 109 106 109 102 95 88 81 72 70 68 47 51 68 95 82 66 45 41 43 47
124 108 106 119 108 106 96 93 86 76 58 65 59 38 51 62 76 59 50 39 29 23
97 113 129 106 101 103 101 98 84 76 57 58 50 43 49 52 63 71 62 48 20 19